Theta_e
319 315 317 325 316 312 314 315 316 318 318 321 321 320 323 324 337 337 339 338 327 326 321 320 321 319 318 318 318 317 317 317 318 318 318 319 319 319 319 320 320 319 319 319 318 318 318 318 318
318 314 321 321 315 315 312 314 317 317 320 320 321 322 320 320 324 330 333 335 327 326 324 322 322 321 320 319 319 319 319 320 319 320 320 320 320 320 320 320 320 320 320 320 319 319 319 318 319
317 317 322 317 312 314 314 315 318 318 320 319 320 323 321 333 339 327 329 332 326 326 323 324 322 322 322 322 321 321 321 322 321 321 321 321 321 320 320 320 320 320 320 320 319 319 319 319 319
325 321 322 320 319 317 316 317 315 316 321 321 321 319 324 333 339 337 338 328 326 326 324 324 323 322 322 323 322 322 322 322 322 322 321 321 321 321 320 320 320 320 319 319 319 319 319 319 319
322 326 321 321 319 320 317 318 319 318 319 321 324 321 323 332 339 340 334 327 327 326 325 324 324 323 323 323 323 323 323 322 322 322 322 321 321 321 321 321 321 320 320 320 320 319 319 319 320
328 323 322 321 317 320 320 321 321 319 320 325 323 322 327 326 338 339 331 326 326 326 324 323 325 324 324 323 323 323 323 323 322 322 322 322 322 322 321 321 320 320 320 319 319 320 320 319 320
327 321 323 322 324 323 322 322 320 321 323 325 326 321 326 333 334 338 328 326 325 326 325 322 323 324 324 323 322 323 323 323 323 323 323 323 322 321 321 320 319 319 319 318 319 319 319 319 320
326 321 324 321 324 323 324 325 326 325 325 326 326 323 324 330 339 340 328 326 325 325 325 323 323 323 324 323 322 322 323 323 323 323 323 322 322 321 320 320 319 319 318 318 318 318 318 319 319
322 326 327 326 326 325 325 323 324 325 325 324 325 325 324 324 336 341 336 330 325 325 324 324 324 323 324 323 322 322 322 322 322 322 322 321 321 321 320 320 319 318 318 318 318 317 317 317 318
317 318 323 325 325 325 325 324 324 323 322 322 323 324 323 323 327 340 337 333 325 324 324 323 324 324 323 323 322 322 322 322 321 321 321 321 323 322 321 320 319 319 318 318 317 317 316 316 317
313 316 320 322 322 322 321 321 321 320 320 322 321 322 322 322 324 327 339 332 327 324 323 323 323 323 324 324 323 322 322 322 321 321 321 321 323 322 322 320 319 319 318 318 317 317 316 316 315
312 312 316 318 319 318 317 317 317 318 318 319 320 320 320 321 322 325 328 337 327 324 323 322 322 323 323 324 324 323 324 324 322 323 322 322 322 321 321 320 319 319 318 318 317 317 316 315 315
310 310 311 312 313 314 314 314 314 316 316 317 317 318 318 319 320 321 325 327 334 332 325 323 322 323 323 323 325 325 325 325 324 324 323 323 323 321 320 320 318 319 319 319 320 321 320 318 317
309 309 309 311 311 312 312 313 314 315 316 316 317 317 318 318 320 321 322 322 325 329 335 327 325 323 324 325 325 326 326 325 324 324 323 323 322 323 321 320 320 322 324 326 328 332 331 327 326
309 309 307 308 310 310 312 312 313 314 315 316 315 315 316 317 318 319 320 322 324 327 332 337 334 326 324 325 325 325 325 324 324 325 324 328 324 325 324 325 329 332 332 335 337 338 338 336 335
308 305 306 307 309 310 312 312 313 312 312 313 313 313 314 314 314 317 318 321 325 327 328 330 336 334 328 326 325 323 324 323 324 329 332 335 336 334 332 332 335 333 334 335 338 341 341 340 339
305 306 308 308 308 309 311 310 310 312 312 312 312 312 313 313 314 314 316 319 321 322 326 326 331 337 338 336 328 325 326 326 329 333 333 334 334 334 330 330 333 337 338 336 337 338 342 342 341
309 309 309 309 308 309 309 308 310 311 311 311 312 312 312 313 313 313 314 315 317 320 323 326 331 332 336 340 340 333 329 329 331 333 335 336 337 335 333 331 331 338 339 336 334 334 342 343 341
309 309 309 308 310 310 309 309 309 310 310 310 311 312 312 312 312 313 313 314 315 317 319 323 328 333 333 332 340 342 339 336 332 335 336 339 338 336 334 332 331 335 336 334 335 335 341 343 342
307 308 310 309 310 311 309 309 309 309 309 310 311 311 312 312 312 312 313 313 314 314 316 319 322 325 331 336 333 338 343 340 336 340 337 337 338 337 335 333 332 334 335 334 332 334 339 343 342
310 310 311 311 311 308 308 307 308 309 310 310 310 311 311 311 310 311 312 312 313 313 314 315 317 320 322 325 332 337 340 343 342 338 337 336 337 337 336 333 331 331 333 333 329 336 341 344 343
310 311 311 310 308 307 309 308 307 307 307 308 308 309 310 311 313 313 314 314 313 313 313 314 315 316 318 321 323 325 330 335 333 337 336 334 335 336 334 332 331 329 331 330 330 338 342 344 343
308 311 310 310 308 308 307 307 306 306 308 307 307 310 311 312 314 314 313 313 314 314 314 314 314 315 316 318 321 324 325 326 330 334 335 333 334 337 332 331 327 328 327 332 335 339 344 344 341
308 308 305 304 305 307 306 307 306 306 308 307 310 313 313 313 312 312 311 311 312 313 314 314 314 314 315 316 319 322 325 326 330 334 335 333 336 334 330 328 326 325 326 329 335 342 345 343 341
305 304 306 306 305 306 306 307 306 307 308 307 311 313 313 312 312 311 312 312 312 312 313 315 315 314 315 316 318 322 323 326 327 328 332 334 335 332 329 327 326 325 325 329 341 344 345 342 340
307 305 306 309 309 305 306 307 306 307 308 310 312 313 313 312 312 312 312 313 314 315 312 315 317 315 315 316 317 320 325 324 324 325 328 331 335 331 328 327 326 325 331 342 345 345 345 341 339
308 308 305 306 305 305 306 306 307 308 308 309 311 312 312 311 311 311 312 313 314 315 314 318 317 318 316 315 317 319 322 329 327 331 332 332 334 329 329 327 326 332 344 345 345 344 340 337 338
307 306 307 304 310 311 308 307 308 307 307 307 309 310 309 310 310 311 312 314 315 316 316 316 318 320 320 316 316 320 321 328 331 331 332 332 330 331 328 328 327 339 344 345 344 339 336 337 337
306 308 307 304 303 306 307 308 306 307 308 309 306 309 309 310 311 311 312 314 317 316 317 320 321 322 323 321 318 321 321 324 330 330 329 330 329 327 328 329 328 342 345 344 341 338 337 339 339
306 307 307 304 305 311 310 311 309 307 306 307 308 309 312 312 311 312 314 314 317 317 322 322 323 321 328 330 326 324 321 324 329 330 329 328 327 327 329 330 335 345 345 343 339 336 338 339 338
Wind_Speed
5 1 4 3 3 5 3 6 1 5 6 2 13 5 8 10 7 6 6 23 32 34 35 35 32 29 27 26 26 26 25 25 24 23 22 21 20 18 17 16 15 13 12 11 10 10 9 8 7
5 3 4 3 4 1 5 4 3 4 7 17 16 8 6 14 30 25 18 31 34 38 39 37 35 32 31 29 29 28 27 26 25 23 22 20 18 17 15 14 13 11 10 9 8 8 7 7 6
3 4 2 4 3 6 5 5 3 5 14 7 5 19 7 6 9 20 23 36 40 39 40 38 37 34 33 31 30 29 27 26 24 23 20 18 17 15 13 12 11 10 9 8 7 7 6 5 4
1 2 3 3 8 4 5 3 5 5 6 8 9 9 16 12 8 18 20 44 42 41 40 39 37 35 34 32 31 29 27 25 24 22 20 18 15 14 12 11 10 9 8 7 6 6 5 4 4
4 2 1 2 7 2 3 5 10 5 7 17 22 8 12 12 10 22 25 41 45 43 41 40 37 35 34 33 32 30 27 26 24 22 19 17 15 13 12 10 9 8 7 6 6 5 4 4 2
3 3 2 5 10 1 2 8 8 3 7 18 13 17 7 32 11 17 35 42 43 42 42 41 38 36 34 34 33 30 28 26 24 22 19 17 15 14 12 11 10 9 9 8 7 6 6 4 3
6 4 5 5 6 4 2 3 1 3 7 7 22 4 20 43 16 13 41 42 44 41 42 42 40 37 35 34 33 30 28 26 24 22 19 18 16 15 14 13 12 11 10 10 9 9 9 8 7
4 4 4 5 6 4 1 7 8 6 5 17 15 6 15 34 17 10 39 42 45 42 42 41 40 39 37 36 34 32 29 27 24 22 20 19 17 16 16 16 15 14 13 12 13 12 12 11 11
5 2 5 6 5 3 9 6 11 7 13 15 4 13 21 31 23 12 33 37 45 44 44 41 39 39 38 36 35 33 31 29 26 24 23 21 20 19 19 18 17 16 15 15 15 16 15 15 15
4 3 7 4 3 5 14 5 14 7 16 9 16 21 25 24 21 13 24 34 43 45 44 41 40 40 38 37 35 34 32 31 30 28 26 25 21 20 20 20 20 18 17 17 18 19 19 18 17
3 3 1 2 4 4 9 4 6 7 11 3 21 29 29 23 17 19 18 27 39 42 43 44 44 42 39 39 37 35 33 32 31 29 27 25 23 22 22 23 23 20 19 19 20 21 22 21 20
2 4 4 2 7 8 8 20 9 21 21 19 19 26 22 20 16 14 13 22 34 41 46 46 46 43 42 39 36 35 34 33 32 29 27 26 25 25 25 25 23 21 20 20 21 21 22 23 23
2 2 3 4 8 14 15 17 19 27 21 21 15 17 20 23 21 17 12 11 21 31 39 41 44 44 42 40 38 36 35 35 32 30 28 26 26 27 26 27 24 22 21 21 20 21 21 23 22
0 2 7 5 7 8 6 13 21 22 11 21 23 24 21 19 18 18 17 14 17 21 33 38 44 44 44 42 42 40 38 35 33 31 29 28 28 29 29 27 27 23 20 18 18 18 19 21 21
2 2 4 8 11 7 12 12 17 21 17 17 10 10 9 8 11 15 17 16 14 17 21 33 41 47 46 45 45 42 39 37 34 29 28 24 31 30 29 27 27 21 16 16 18 18 19 20 20
2 4 1 4 1 6 14 13 3 12 15 17 12 11 13 15 13 9 13 14 11 15 16 17 35 39 43 48 47 45 43 39 36 29 29 20 32 26 27 25 26 18 16 17 19 19 19 20 20
5 1 1 7 5 4 2 3 4 15 16 14 20 16 15 16 14 11 6 12 16 16 22 20 20 25 34 42 45 45 43 40 34 34 30 25 37 25 23 23 25 20 19 19 19 21 20 21 19
1 2 2 4 5 6 4 7 6 15 15 14 18 18 13 12 11 14 10 6 9 18 17 24 23 22 23 29 39 44 47 45 41 41 36 38 32 25 23 24 25 23 20 20 21 22 21 21 19
1 3 3 4 3 6 8 10 8 11 10 13 12 14 18 13 10 11 10 8 9 7 19 20 26 29 28 29 34 42 47 50 50 45 39 34 32 31 26 25 24 26 23 22 22 21 21 20 19
4 2 2 4 5 3 9 18 14 8 7 10 11 19 17 14 17 18 17 15 14 14 11 19 24 27 34 35 33 36 43 50 49 47 41 38 42 36 30 24 25 26 26 23 23 21 20 19 18
2 3 2 5 4 5 6 6 2 4 6 11 15 14 19 26 30 24 23 22 20 20 19 15 16 25 32 36 39 40 41 46 46 46 46 42 40 36 29 26 26 30 28 25 24 21 19 19 18
2 5 3 2 4 3 4 6 2 1 5 3 15 17 18 16 17 19 18 18 20 23 21 20 19 18 21 33 38 41 44 46 48 55 50 42 40 34 26 28 29 30 29 28 25 21 19 19 20
4 2 1 1 2 1 4 1 7 5 3 4 8 17 17 19 19 21 20 21 20 22 23 23 24 23 22 21 32 40 44 46 41 50 49 46 42 32 27 30 32 31 31 28 26 24 21 20 20
2 3 4 3 2 2 5 3 4 3 4 8 8 18 16 15 19 20 22 24 26 25 25 25 26 28 27 25 24 34 40 44 45 47 50 49 42 31 31 32 31 31 31 30 26 23 21 20 20
6 6 4 5 3 4 2 5 7 8 10 9 9 21 23 23 23 24 30 34 34 33 27 26 26 30 31 30 25 28 38 39 41 45 51 53 44 35 34 34 30 29 28 26 23 22 20 21 18
3 6 4 4 3 4 3 7 7 6 13 20 16 21 24 28 27 29 33 34 36 37 28 26 26 29 30 33 30 29 30 40 46 44 46 49 40 35 33 30 26 24 21 22 20 20 20 19 19
2 3 3 1 2 3 5 7 11 13 9 10 18 18 27 35 33 34 33 32 36 36 27 23 24 29 30 33 33 31 28 30 37 34 33 34 33 35 33 27 23 18 18 19 19 20 18 18 17
5 6 2 2 2 5 4 7 11 11 15 6 7 15 31 36 40 34 27 32 32 29 22 25 20 26 30 32 33 32 30 26 28 29 29 30 35 36 31 26 22 18 19 20 19 18 16 16 17
1 2 4 3 4 4 3 7 6 6 8 5 7 22 29 34 36 25 26 30 31 28 25 25 21 23 28 30 33 33 34 29 31 32 31 32 33 29 26 26 23 21 21 21 16 18 17 17 18
5 7 6 4 5 4 3 14 3 13 5 6 13 21 28 27 26 20 24 28 29 34 25 25 24 25 23 27 31 34 36 34 34 35 35 33 29 27 25 26 24 23 23 19 20 19 17 17 17
Wind_Direction
314 296 151 141 66 67 258 256 272 335 329 235 303 260 234 241 176 211 298 187 180 173 168 168 163 163 162 159 158 157 157 155 156 153 151 145 141 137 133 129 124 124 122 119 118 117 116 112 107
310 170 140 111 100 128 262 256 220 214 278 305 297 269 208 256 250 242 254 192 179 174 168 170 164 163 161 158 157 158 157 157 158 157 155 152 148 147 145 140 138 138 136 134 129 126 124 120 115
295 164 134 110 131 207 210 208 193 271 315 269 284 302 270 239 264 209 225 190 177 176 171 170 166 166 163 161 161 161 161 162 164 163 163 162 160 160 158 155 157 158 160 157 150 146 141 133 121
224 141 66 110 232 254 197 201 243 322 330 310 324 306 313 285 282 216 212 178 177 177 174 172 168 171 168 166 165 164 167 170 171 172 174 173 174 172 173 175 176 180 180 180 176 174 169 159 141
215 110 53 271 257 227 228 228 281 297 290 303 324 293 288 321 279 209 193 176 179 178 176 173 171 175 175 172 170 170 174 178 180 182 185 185 188 187 189 191 195 200 205 208 209 206 202 196 176
161 122 99 244 249 107 283 233 267 243 293 321 328 321 343 351 323 203 185 177 181 179 178 175 174 179 181 179 177 178 181 185 187 190 194 198 200 202 205 212 214 222 225 230 235 244 244 238 242
168 126 207 232 268 338 287 271 237 314 313 322 327 338 342 357 346 193 180 179 183 185 183 178 178 182 188 186 183 186 188 191 195 198 202 208 212 217 222 227 229 235 240 245 250 255 261 263 262
213 138 197 220 253 279 294 347 318 336 301 329 345 11 353 351 339 237 187 187 187 188 190 183 182 187 191 192 190 192 196 197 202 207 212 217 220 229 234 237 239 239 246 253 261 262 264 267 269
185 183 208 205 169 197 285 10 301 310 291 315 327 326 346 345 339 285 199 193 191 192 194 189 189 193 196 196 197 197 202 203 208 213 218 224 226 233 239 244 247 247 252 257 264 268 266 267 269
179 185 216 182 173 285 265 262 301 328 314 302 319 318 335 349 337 291 207 200 197 198 198 195 195 199 199 201 203 204 205 209 212 217 221 226 232 240 246 249 251 252 256 261 264 268 268 267 270
209 213 225 24 67 313 298 306 293 293 288 17 319 319 323 332 331 317 259 226 207 204 204 202 201 204 204 205 207 209 211 214 217 220 225 232 240 244 251 252 254 260 262 269 272 274 276 276 275
218 251 212 155 274 279 285 305 276 268 267 292 302 304 317 322 325 311 290 256 222 212 210 209 206 206 209 212 212 215 217 219 222 226 232 237 246 249 255 257 260 265 271 273 276 279 280 281 279
169 299 326 290 263 256 281 276 276 262 286 299 304 308 309 305 305 304 297 283 250 245 231 220 215 212 212 215 217 220 223 227 227 231 236 244 252 256 261 266 267 273 275 278 278 279 281 281 282
270 297 288 264 234 235 230 269 269 272 313 302 306 306 304 306 311 307 298 298 285 269 239 233 227 218 217 218 221 224 226 230 234 239 242 250 257 265 266 270 274 275 276 279 280 277 278 277 278
268 305 301 221 224 226 215 261 257 291 314 302 333 336 336 327 299 302 308 307 290 284 259 240 239 228 223 223 226 228 232 233 237 244 253 265 263 264 269 274 275 274 268 276 275 271 271 273 277
48 59 22 288 147 246 187 244 54 5 357 336 345 353 346 339 353 310 283 283 276 281 285 278 243 235 233 235 233 233 237 238 239 235 243 259 276 259 266 272 273 267 267 275 277 274 271 271 273
6 145 299 320 34 338 145 302 322 335 331 321 322 327 335 333 339 350 324 274 262 266 269 273 274 254 243 241 241 242 243 243 238 236 236 236 251 252 258 268 272 265 267 274 279 281 272 269 270
226 356 306 257 325 5 300 227 287 309 312 304 309 315 324 328 336 340 342 317 296 255 252 267 262 267 268 254 239 235 236 236 233 237 238 235 249 252 256 266 268 267 271 278 283 286 276 270 267
109 186 230 285 348 9 291 288 284 277 275 285 290 309 311 318 324 327 329 310 310 293 250 247 262 261 257 262 252 240 238 235 234 236 247 247 256 258 256 262 268 267 275 282 284 280 272 267 260
180 175 230 288 285 301 277 294 286 217 235 233 275 299 292 299 313 317 310 300 292 293 287 245 244 255 259 257 260 258 248 242 238 243 251 254 260 254 255 263 272 273 275 277 281 277 272 266 256
156 160 222 237 311 290 314 281 90 279 250 285 296 284 293 303 309 308 304 301 292 286 289 278 256 240 245 257 259 256 251 248 249 255 264 256 256 250 260 269 274 273 274 273 273 269 267 267 260
197 202 215 261 31 292 37 286 260 119 268 277 316 313 305 307 312 316 317 309 295 287 285 284 277 268 259 243 246 250 252 251 254 256 259 256 259 256 262 271 268 271 273 272 265 257 257 255 250
201 160 332 294 241 103 280 290 277 309 330 330 309 305 296 300 309 316 320 318 315 301 292 286 282 274 272 268 250 245 244 251 253 251 251 257 258 258 257 260 261 267 271 267 261 253 251 246 246
77 40 34 51 76 20 260 183 244 241 226 315 308 322 322 311 315 318 329 331 326 310 301 291 283 272 267 269 264 251 248 245 249 245 246 255 253 251 256 255 260 267 270 261 255 245 244 246 246
73 52 340 345 3 234 285 294 244 248 278 269 255 292 312 315 321 327 331 330 324 323 301 296 288 276 266 264 268 254 244 243 245 248 248 249 249 248 251 254 261 270 270 254 236 239 238 247 229
189 152 158 244 229 245 1 251 252 221 237 278 264 281 298 314 315 322 330 331 330 321 300 294 291 284 275 264 265 260 242 240 242 248 250 252 248 245 251 255 259 267 251 229 228 233 234 233 224
170 173 192 153 8 32 228 290 293 281 284 271 268 290 305 317 319 324 328 335 333 323 302 296 296 286 279 267 262 259 245 241 241 244 243 247 239 243 247 251 258 246 224 222 229 233 214 221 220
159 161 86 21 258 259 258 254 238 301 292 300 309 305 317 315 316 321 325 333 332 322 306 300 297 290 280 270 257 255 243 240 239 234 233 231 235 241 244 240 244 225 221 223 226 204 210 219 215
168 170 75 132 154 202 300 264 220 239 259 291 306 318 319 315 317 322 327 328 334 325 314 306 307 298 276 267 254 249 235 229 235 233 233 235 241 245 238 232 232 222 220 225 222 202 218 210 211
170 192 156 137 244 216 216 262 340 279 302 313 315 320 331 338 321 320 332 327 327 330 318 322 328 318 285 263 250 241 227 226 227 234 239 240 244 241 230 228 222 217 221 220 199 207 210 205 206